Simultaneous Nadir Overpasses (SNOs) Predictions

Prediction of SNOs between GOES-15 and METOP-A Satellite Orbit:

Table of predicted SNOs for the next 14.0 days since TLE Epoch: 8/7/2015
<
Index Date Time (GOES-15) GOES-15 Lat,Lon METOP-A Lat,Lon Distance(km) Time Diff (sec)
1 08/08/2015 18:34:14 0.03,-134.96 0.26,-135.93 110.55 80
2 08/09/2015 18:10:54 0.01,-134.94 -0.86,-130.93 455.32 80
3 08/11/2015 06:32:34 -0.04,-134.90 -0.15,-135.54 71.69 80
4 08/12/2015 06:09:15 -0.02,-134.88 0.97,-130.55 494.27 80
5 08/13/2015 18:30:45 0.05,-134.84 0.11,-135.10 29.24 80
6 08/16/2015 06:26:25 -0.05,-134.77 -0.04,-134.70 8.42 80
7 08/18/2015 18:24:36 0.06,-134.70 -0.01,-134.26 49.96 80
8 08/20/2015 06:46:15 -0.10,-134.65 -1.04,-138.85 479.00 80
9 08/21/2015 06:22:56
